Flag for Belgium Weather past 2 weeks in Eupen, Belgium

Now
21 °F

Overcast.


Feels Like: 13 °F
Forecast: 10 / 35 °F
Wind: 6 mph from Northeast

Location: Spa / La Sauveniere

Current Time: Dec 28, 2014 at 7:06:22 AM

Latest Report: Dec 28, 2014 at 6:00 AM


Visibility: 8 mi

Pressure: 29.98 "Hg

Humidity: 86%

Dew point: 17 °F

Location of EupenLocation

Historic Weather in Eupen — Graph

°F

Eupen temperature yesterday

Maximum temperature yesterday: 33 °F (at 1:00 AM)
Minimum temperature yesterday: 27 °F (at 11:00 PM)
Average temperature yesterday: 31 °F

Past Weeks' High & Low Weather Summary

 TemperatureHumidityPressure
High50 °F (Dec 18, 4:00 PM)100% (Dec 13, 6:00 PM)30.49 "Hg (Dec 13, 6:00 PM)
Low22 °F (Dec 28, 5:00 AM)81% (Dec 25, 12:00 AM)29.35 "Hg (Dec 27, 11:00 AM)
Average38 °F94%30.08 "Hg
* Reported Dec 13 6:00 AM — Dec 28 5:00 AM, Eupen, Weather by CustomWeather, © 2014

Note: Actual official high and low records may vary slightly from our data, if they occured in-between our weather recording intervals... More about our weather records

Advertising

Eupen weather history for previous 24 hours

 ConditionsComfort  
Time TempWeatherWind HumidityBarometerVisibility
5:00 AM
Dec 28
22 °FOvercast.6 mph85%29.93 "Hg7 mi
3:00 AM24 °FLight snow. Low clouds.3 mph87%29.82 "Hg6 mi
2:00 AM25 °FLight snow. Low clouds.5 mph84%29.77 "Hg5 mi
1:00 AM26 °FSnow flurries. Overcast.3 mph85%29.72 "Hg10 mi
12:00 AM26 °FSnow flurries. Low clouds.7 mph85%29.68 "Hg6 mi
11:00 PM
Dec 27
27 °FLight snow. Low clouds.5 mph88%29.64 "Hg2 mi
10:00 PM28 °FSnow flurries. Low clouds.5 mph87%29.60 "Hg12 mi
9:00 PM29 °FLight snow. Overcast.6 mph86%29.55 "Hg19 mi
8:00 PM30 °FLight snow. Low clouds.5 mph90%29.50 "Hg7 mi
7:00 PM31 °FSnow flurries. Low clouds.2 mph96%29.44 "Hg1 mi
6:00 PM31 °FLight snow. Low clouds.2 mph98%29.41 "Hg1 mi
5:00 PM32 °FLow clouds.1 mph96%29.38 "Hg10 mi
4:00 PM33 °FLow clouds.2 mph94%29.35 "Hg19 mi
3:00 PM33 °FLow clouds.5 mph91%29.35 "Hg15 mi
2:00 PM33 °FSnow flurries. Low clouds.3 mph93%29.35 "Hg4 mi
1:00 PM32 °FSnow flurries. Low clouds.3 mph92%29.35 "Hg4 mi
12:00 PM32 °FSnow flurries. Low clouds.6 mph92%29.35 "Hg4 mi
11:00 AM31 °FLight snow. Low clouds.6 mph92%29.35 "Hg2 mi
10:00 AM31 °FFreezing rain. Low clouds.8 mph92%29.38 "Hg2 mi
9:00 AM31 °FHeavy snow. Ice fog.9 mph93%29.38 "Hg1 mi
8:00 AM30 °FLight snow. Ice fog.12 mph93%29.41 "Hg1 mi
7:00 AM30 °FSnow. Ice fog.13 mph94%29.47 "Hg0 mi
Weather by CustomWeather, © 2014

See weather overviewHow to use our weather pages